BM6HML-1 Weather Reports


time (UTC)temp
F
wind
direction
speed
knots
gust
knots
rain 1hr
in
rain 24hr
in
rain mn
in
humidity
%
barometer
mb
20260508071419 92 0.0 0.0 0.00 0.00 0.00 68 1009.0
20260508065420 92 0.0 0.0 0.00 0.00 0.00 70 1009.2
20260508063419 92 0.0 0.0 0.00 0.00 0.00 71 1009.4
20260508061420 91 0.0 0.0 0.00 0.00 0.00 73 1009.5
20260508055419 91 0.0 0.0 0.00 0.00 0.00 73 1009.6
20260508053420 91 0.0 0.0 0.00 0.00 0.00 73 1009.8
20260508051420 91 0.0 0.0 0.00 0.00 0.00 72 1010.0
20260508045420 91 0.0 0.0 0.00 0.00 0.00 71 1010.0
20260508043420 91 0.0 0.0 0.00 0.00 0.00 70 1010.4
20260508041419 91 0.0 0.0 0.00 0.00 0.00 70 1010.5
20260508035420 90 0.0 0.0 0.00 0.00 0.00 70 1010.7
20260508033419 90 0.0 0.0 0.00 0.00 0.00 71 1010.9
20260508031420 91 0.0 0.0 0.00 0.00 0.00 70 1011.1
20260508025420 90 0.0 0.0 0.00 0.00 0.00 71 1011.4
20260508023420 90 0.0 0.0 0.00 0.00 0.00 72 1011.6
20260508021420 90 0.0 0.0 0.00 0.00 0.00 71 1011.7
20260508015419 90 0.0 0.0 0.00 0.00 0.00 71 1011.9
20260508013420 90 0.0 0.0 0.00 0.00 0.00 71 1012.1
20260508011419 90 0.0 0.0 0.00 0.00 0.00 71 1012.0
20260508005420 90 0.0 0.0 0.00 0.00 0.00 70 1012.1
20260508003420 90 0.0 0.0 0.00 0.00 0.00 72 1011.9
20260508001420 90 0.0 0.0 0.00 0.00 0.00 69 1011.8
20260507235420 90 0.0 0.0 0.00 0.00 0.00 69 1011.4
20260507233419 90 0.0 0.0 0.00 0.00 0.00 69 1011.5
20260507231420 90 0.0 0.0 0.00 0.00 0.00 70 1011.1
20260507225419 90 0.0 0.0 0.00 0.00 0.00 69 1010.8
20260507223420 90 0.0 0.0 0.00 0.00 0.00 69 1010.7
20260507221419 90 0.0 0.0 0.00 0.00 0.00 69 1010.6
20260507215420 90 0.0 0.0 0.00 0.00 0.00 69 1010.5
20260507213420 90 0.0 0.0 0.00 0.00 0.00 68 1010.4
20260507211419 90 0.0 0.0 0.00 0.00 0.00 68 1010.3
20260507205420 90 0.0 0.0 0.00 0.00 0.00 69 1010.2
20260507203420 90 0.0 0.0 0.00 0.00 0.00 69 1010.3
20260507201420 90 0.0 0.0 0.00 0.00 0.00 69 1010.2
20260507195419 90 0.0 0.0 0.00 0.00 0.00 70 1010.0
20260507193420 90 0.0 0.0 0.00 0.00 0.00 70 1010.0
20260507191420 90 0.0 0.0 0.00 0.00 0.00 70 1009.9
20260507185419 90 0.0 0.0 0.00 0.00 0.00 69 1009.8
20260507183420 90 0.0 0.0 0.00 0.00 0.00 70 1009.8
20260507181419 90 0.0 0.0 0.00 0.00 0.00 70 1009.9
20260507175420 91 0.0 0.0 0.00 0.00 0.00 69 1009.9
20260507173419 90 0.0 0.0 0.00 0.00 0.00 69 1009.9
20260507171420 90 0.0 0.0 0.00 0.00 0.00 70 1010.1
20260507165420 91 0.0 0.0 0.00 0.00 0.00 71 1010.1
20260507163420 91 0.0 0.0 0.00 0.00 0.00 68 1010.2
20260507161420 91 0.0 0.0 0.00 0.00 0.00 68 1010.4
20260507155420 91 0.0 0.0 0.00 0.00 0.00 69 1010.5
20260507153420 91 0.0 0.0 0.00 0.00 0.00 71 1010.6
20260507151421 91 0.0 0.0 0.00 0.00 0.00 69 1010.8
20260507145420 92 0.0 0.0 0.00 0.00 0.00 70 1010.9
20260507143420 92 0.0 0.0 0.00 0.00 0.00 67 1011.1
20260507141420 92 0.0 0.0 0.00 0.00 0.00 64 1011.0
20260507135420 93 0.0 0.0 0.00 0.00 0.00 70 1010.9
20260507133420 92 0.0 0.0 0.00 0.00 0.00 71 1010.8
20260507131420 89 0.0 0.0 0.00 0.00 0.00 77 1010.7
20260507125420 87 0.0 0.0 0.00 0.00 0.00 82 1010.5
20260507123419 87 0.0 0.0 0.00 0.00 0.00 82 1010.4
20260507121420 87 0.0 0.0 0.00 0.00 0.00 82 1010.4
20260507115419 87 0.0 0.0 0.00 0.00 0.00 80 1010.4
20260507113420 91 0.0 0.0 0.00 0.00 0.00 73 1010.3
20260507111420 91 0.0 0.0 0.00 0.00 0.00 72 1010.1
20260507105420 91 0.0 0.0 0.00 0.00 0.00 72 1009.8
20260507103420 91 0.0 0.0 0.00 0.00 0.00 72 1009.6
20260507101420 91 0.0 0.0 0.00 0.00 0.00 72 1009.5
20260507095420 91 0.0 0.0 0.00 0.00 0.00 71 1009.2
20260507093419 91 0.0 0.0 0.00 0.00 0.00 71 1008.9
20260507091420 91 0.0 0.0 0.00 0.00 0.00 70 1008.6
20260507085419 91 0.0 0.0 0.00 0.00 0.00 69 1008.6
20260507083420 91 0.0 0.0 0.00 0.00 0.00 69 1008.5
20260507081419 91 0.0 0.0 0.00 0.00 0.00 69 1008.3
20260507075420 91 0.0 0.0 0.00 0.00 0.00 68 1008.3
20260507073420 91 0.0 0.0 0.00 0.00 0.00 68 1008.3